This is the latest recevied weather packets stored in our database for station/object PD2BVG. If no packets are shown the sender has not sent any weather packets the latest 10 day(s).
| Time | Temp. | Humidity | Pressure | Rain* | Wind** | Luminosity | Snow |
|---|---|---|---|---|---|---|---|
| 1788082405 | 20.56° C | 82% | 1011.3 hPa | 0 mm | - | 603 W/m² | - |
| 1788082344 | 20.56° C | 84% | 1011.4 hPa | 0 mm | - | 593 W/m² | - |
| 1788082284 | 20.56° C | 84% | 1011.4 hPa | 0 mm | - | 589 W/m² | - |
| 1788082224 | 20.56° C | 83% | 1011.2 hPa | 0 mm | - | 594 W/m² | - |
| 1788082164 | 20.56° C | 84% | 1011.3 hPa | 0 mm | - | 565 W/m² | - |
| 1788082103 | 20.56° C | 84% | 1011.2 hPa | 0 mm | - | 454 W/m² | - |
| 1788082043 | 20.56° C | 83% | 1011.4 hPa | 0 mm | - | 591 W/m² | - |
| 1788081983 | 20.56° C | 84% | 1011.2 hPa | 0 mm | - | 598 W/m² | - |
| 1788081921 | 20.56° C | 84% | 1011.3 hPa | 0 mm | - | 593 W/m² | - |
| 1788081861 | 20.56° C | 84% | 1011.3 hPa | 0 mm | - | 582 W/m² | - |
| 1788081800 | 20.56° C | 84% | 1011.3 hPa | 0 mm | - | 526 W/m² | - |
| 1788081740 | 20.56° C | 84% | 1011.3 hPa | 0 mm | - | 526 W/m² | - |
| 1788081680 | 20.56° C | 84% | 1011.3 hPa | 0 mm | - | 584 W/m² | - |
| 1788081618 | 20.56° C | 85% | 1011.3 hPa | 0 mm | - | 586 W/m² | - |
| 1788081558 | 20.56° C | 85% | 1011.2 hPa | 0 mm | - | 559 W/m² | - |
| 1788081494 | 20.56° C | 85% | 1011.3 hPa | 0 mm | - | 577 W/m² | - |
| 1788081434 | 20.56° C | 85% | 1011.4 hPa | 0 mm | - | 577 W/m² | - |
| 1788081373 | 20.56° C | 85% | 1011.3 hPa | 0 mm | - | 572 W/m² | - |
| 1788081313 | 20° C | 86% | 1011.3 hPa | 0 mm | - | 584 W/m² | - |
| 1788081254 | 20° C | 87% | 1011.2 hPa | 0 mm | - | 584 W/m² | - |
| 1788081191 | 20° C | 87% | 1011.2 hPa | 0 mm | - | 591 W/m² | - |
| 1788081129 | 20° C | 87% | 1011.2 hPa | 0 mm | - | 586 W/m² | - |
| 1788081068 | 20° C | 87% | 1011.2 hPa | 0 mm | - | 573 W/m² | - |
| 1788081009 | 19.44° C | 87% | 1011.2 hPa | 0 mm | - | 584 W/m² | - |
| 1788080947 | 19.44° C | 86% | 1011.2 hPa | 0 mm | - | 582 W/m² | - |
* Rain latest hour (hover to see other rain measurements)
** Current wind speed in m/s (hover to see current wind gust speed)